www.pogodaiklimat.ru

Погода и климат >> Архив погоды >> Кука Острова >> Rarotonga


ПОГОДА в Rarotonga

  • Прогноз погоды в Rarotonga
  • Монитор погоды в Rarotonga
  • Климат города

АРХИВ ПОГОДЫ в Rarotonga

Время (UTC), дата Ветер
(напр.,м/с)
 
Видим.   Явления Облачность Т
(С)
Тd
(С)
f
(%)
Тe
(С)
Тes
(С)
Комфортность P
(гПа)
Po
(гПа)
Тmin
(С)
Tmax
(С)
R
(мм)
R24
(мм)
S
(см)
03 16.06 Ю 5 1500 м 4/4 630 м
[Cu med, cong]
+24.0 +18.2 70 +28 +29 душно 1012.6 1013.0
06 16.06 Ю 5 20 км {морось} 5/5 450 м
[Cu med, cong]
+22.0 +18.2 79 +27 +27 душно 1014.2 1014.0
09 16.06 ЮВ 2 20 км {морось} 8/5 360 м
[Cu med, cong Ac As]
+22.1 +18.6 81 +27 +27 душно 1014.8 1015.0
12 16.06 Ю 2 20 км {морось} 8/5 450 м
[Cu med, cong Ac As]
+21.7 +18.4 82 +26 +26 душно 1014.4 1014.0 +26.6
15 16.06 Ю 2 20 км {ливн. осадки} 9/5 450 м
[Cu med, cong Ac As]
+21.5 +18.3 82 +26 +26 душно 1014.0 1014.0
18 16.06 Ю 2 20 км {ливн. осадки} 9/5 420 м
[Cu med, cong Ac As]
+21.3 +18.5 84 +26 +26 душно 1015.7 1016.0 1
21 16.06 ЮВ 3 20 км слабый ливневой дождь 9/5 150 м
[Cu Sc Ac trans]
+22.0 +20.0 88 +28 +30 душно 1017.0 1017.0
00 17.06 Ю 5 20 км слабый ливневой дождь 9/8 200 м
[Frnb]
+22.8 +19.7 83 +29 +30 очень
душно
1014.8 1015.0 +19.9 6
03 17.06 Ю 5 20 км слабый ливневой дождь 9/8 540 м
[Cu med, cong Ac As]
+22.9 +21.4 91 +30 +31 очень
душно
1014.8 1015.0
06 17.06 ЮВ 2 20 км 6/6 300 м
[]
+22.0 +19.4 85 +27 +27 душно 1016.0 1016.0
09 17.06 Ю 1 20 км осадки на расстоянии 6/6 360 м
[Cu med, cong]
+22.5 +19.7 84 +29 +29 очень
душно
1016.5 1017.0
12 17.06 СЗ 1 20 км 6/5 450 м
[Cu med, cong Ac trans]
+21.3 +19.3 88 +26 +26 душно 1015.8 1016.0 +23.7 0.2
15 17.06 ЮВ 1 20 км 9/5 450 м
[Cu med, cong Ac trans]
+21.9 +19.8 88 +28 +28 душно 1014.6 1015.0
18 17.06 ЮВ 2 20 км 9/4 630 м
[Cu med, cong Ac trans]
+23.0 +19.3 80 +29 +30 очень
душно
1015.5 1016.0
21 17.06 В 3 20 км 8/4 480 м
[Cu med, cong Ac trans]
+25.3 +20.6 75 +31 +34 очень
душно
1015.9 1016.0
00 18.06 ЮВ 4 20 км слабый ливневой дождь {морось} 9/9 100 м
[Frnb]
+24.0 +21.0 83 +30 +31 очень
душно
1014.1 1014.0 +19.7
03 18.06 ЮВ 5 4000 м ливневой дождь 10/10 120 м
[Frnb]
+22.0 +20.5 91 +28 +28 душно 1013.6 1014.0
06 18.06 ЮВ 6 10 км слабый ливневой дождь 8/8 360 м
[Cu med, cong]
+21.5 +19.2 87 +26 +26 душно 1013.6 1014.0 4
09 18.06 ЮВ 4 10 км слабый ливневой дождь 9/9 180 м
[Frnb]
+21.5 +19.2 87 +26 +26 душно 1015.4 1015.0
12 18.06 ЮВ 4 20 км слабый ливневой дождь 9/6 240 м
[Frnb Ac As]
+20.6 +19.0 91 +25 +25 комфорт 1015.2 1015.0 +26.0 5
15 18.06 Ю 1 20 км слабый ливневой дождь {морось} 10/6 270 м
[Frnb Ac As]
+20.5 +18.3 87 +25 +25 комфорт 1014.7 1015.0
18 18.06 ЮВ 1 20 км в посл. час морось {ливн. осадки} 9/9 450 м
[Cu Sc]
+21.1 +17.0 77 +25 +25 комфорт 1016.6 1017.0 3
21 18.06 Ю 6 50 км слабая морось 8/5 700 м
[Cu med, cong Ac As]
+22.6 +16.0 66 +27 +28 душно 1017.5 1018.0
00 19.06 СВ 6 20 км {морось} 5/5 600 м
[Cu med, cong]
+24.4 +15.2 56 +27 +29 жарко 1015.5 1016.0 +20.1 0.1
06 19.06 ЮВ 3 20 км слабый ливневой дождь 8/8 540 м
[Cu Sc]
+21.5 +15.5 69 +25 +25 комфорт 1017.0 1017.0
09 19.06 ЮВ 3 20 км {ливн. осадки} 6/6 480 м
[Cu med, cong]
+22.0 +15.7 67 +26 +26 душно 1018.4 1018.0
12 19.06 ЮВ 3 20 км 5/5 480 м
[Cu med, cong]
+21.1 +15.1 69 +24 +24 комфорт 1017.9 1018.0 +24.4
15 19.06 ЮВ 3 20 км 6/6 480 м
[Cu Sc]
+21.0 +13.4 62 +24 +24 комфорт 1017.2 1017.0
18 19.06 ЮВ 3 50 км 5/5 700 м
[Cu med, cong]
+21.0 +17.2 79 +25 +26 комфорт 1019.4 1019.0
21 19.06 ЮВ 8 50 км 5/5 600 м
[Cu med, cong]
+23.4 +14.1 56 +27 +28 душно 1019.5 1020.0
00 20.06 В 7 50 км 4/4 600 м
[Cu hum]
+23.8 +16.9 65 +27 +29 жарко 1016.9 1017.0 +20.0 1
03 20.06 В 6 20 км 5/5 700 м
[Cu hum]
+22.5 +15.0 63 +26 +26 жарко 1016.9 1017.0
06 20.06 В 3 20 км 4/4 700 м
[Cu hum]
+21.5 +13.4 60 +24 +24 комфорт 1018.0 1018.0
09 20.06 ЮВ 3 20 км 4/4 700 м
[Cu hum]
+21.3 +12.5 57 +24 +24 комфорт 1018.8 1019.0
12 20.06 ЮВ 4 20 км 4/4 630 м
[Cu hum]
+20.8 +13.4 63 +24 +24 комфорт 1018.0 1018.0 +24.6
15 20.06 ЮВ 4 20 км 4/4 700 м
[Cu hum]
+20.7 +13.6 64 +23 +23 комфорт 1016.5 1017.0
18 20.06 ЮВ 4 20 км 4/4 750 м
[Cu Sc]
+21.0 +14.2 65 +24 +24 комфорт 1017.8 1018.0
21 20.06 ЮВ 6 20 км 6/3 900 м
[Cu hum Ac und]
+24.1 +15.6 59 +27 +29 жарко 1018.9 1019.0
00 21.06 В 5 50 км 6/5 600 м
[Sc diur, vesp Ac trans]
+24.8 +15.3 56 +28 +30 жарко 1016.9 1017.0 +19.3
06 21.06 ЮВ 4 20 км 4/4 700 м
[Cu hum Ac trans]
+22.0 +15.4 66 +26 +26 душно 1017.7 1018.0
09 21.06 ЮВ 3 50 км 3/3 630 м
[Cu hum]
+21.6 +15.3 67 +25 +25 комфорт 1018.1 1018.0
12 21.06 Ю 4 20 км 5/5 540 м
[Cu med, cong]
+21.6 +14.7 65 +25 +25 комфорт 1017.4 1017.0 +25.6
15 21.06 Ю 3 20 км 4/4 630 м
[Cu med, cong]
+21.2 +12.8 59 +23 +23 комфорт 1016.7 1017.0
21 21.06 ЮВ 4 50 км 4/4 750 м
[Cu med, cong]
+23.0 +14.6 59 +27 +30 душно 1018.4 1018.0
00 22.06 ЮВ 4 50 км 5/5 600 м
[Cu hum]
+23.4 +13.7 54 +27 +30 душно 1016.6 1017.0 +19.4
06 22.06 ЮВ 3 20 км осадки на расстоянии 8/8 480 м
[Cu Sc]
+21.0 +13.2 61 +24 +24 комфорт 1017.1 1017.0
09 22.06 ЮВ 2 20 км 5/5 600 м
[Cu med, cong]
+21.0 +12.8 59 +24 +24 комфорт 1017.2 1017.0
12 22.06 ЮВ 6 20 км 6/6 540 м
[Cu med, cong]
+21.4 +13.2 60 +24 +24 комфорт 1016.9 1017.0 +24.1
15 22.06 ЮВ 6 20 км слабый ливневой дождь 8/8 480 м
[Cu med, cong]
+21.1 +13.1 60 +23 +23 комфорт 1016.5 1017.0
18 22.06 ЮВ 4 20 км {ливн. осадки} 8/8 750 м
[Cu Sc]
+21.1 +11.7 55 +23 +23 комфорт 1017.4 1017.0
21 22.06 ЮВ 4 20 км 8/8 600 м
[Cu med, cong]
+22.8 +13.6 56 +26 +27 жарко 1018.5 1019.0
00 23.06 ЮВ 6 20 км 5/5 600 м
[Cu med, cong]
+23.5 +12.2 49 +25 +27 комфорт 1016.6 1017.0 +20.0

 

Местоположение метеостанции Rarotonga (Кука Острова): широта -21.20 долгота -159.80 высота над уровнем моря 7 м.

В архиве по умолчанию представлена погода в Rarotonga за последнюю неделю. Архивные данные за месяц целиком и за предыдущие месяцы, начиная с января 2011 года, Вы можете получить, выбрав интересующий диапазон дат из раскрывающегося списка и нажав кнопку "Ввод!".

Внимание! Время в таблицах - всемирное. Для получения местного времени необходимо прибавить поправку, которая в Rarotonga равна -10 ч.

Смотрите также архив погоды в соседних городах и на ближайших метеорологических станциях:

Погода в Aitutaki (Кука Острова) (264 км)
Погода в Bora-Bora Airport (Французская Полинезия) (1004 км)
Погода в Hanan Airport (Кука Острова) (1080 км)
Погода в Tubuai (Французская Полинезия) (1097 км)
Погода в Tahiti-Faaa (Французская Полинезия) (1144 км)
Погода в Manihiki (Кука Острова) (1205 км)
Погода в Penrhyn (Кука Острова) (1367 км)
Погода в Le Mafa (Самоа) (1487 км)
Погода в Lufi-Lufi (Самоа) (1488 км)
Погода в Togitogiga (Самоа) (1498 км)

Пояснения к столбцам:

Ветер - указаны скорость ветра в м/с - средняя за 10 мин, порывы в срок и между сроками (в фигурных скобках) и направление, откуда дует ветер: С - северный, СВ - северо-восточный, В - восточный, ЮВ - юго-восточный, Ю - южный, ЮЗ - юго-западный, З - западный, СЗ - северо-западный.
Видимость - горизонтальная дальность видимости в метрах или километрах. При видимости от 1 до 10 км при отсутствии осадков обычно наблюдается дымка, при ухудшении видимости до 1 км и менее - туман. В сухую погоду видимость может ухудшаться дымом, пылью или мглою.
Явления - указаны атмосферные явления, наблюдавшиеся в срок или в последний час перед сроком; фигурными скобками обозначены явления, наблюдавшиеся между сроками (за 1-3 часа до срока); квадратными скобками обозначены град или гололедные отложения с указанием их диаметра в мм.
Облачность - указаны через наклонную черту общая и нижняя облачность в баллах и высота нижней границы облаков в метрах; квадратными скобками обозначены формы облаков: Ci - перистые, Cs - перисто-слоистые, Cc - перисто-кучевые, Ac - высококучевые, As - высокослоистые, Sc - слоисто-кучевые, Ns - слоисто-дождевые, Cu - кучевые, Cb - кучево-дождевые. Подробнее классификацию облаков см. в Атласе облаков (PDF).
T - Температура воздуха - температура, измеренная на высоте 2 м над землей.
Td - Температура точки росы - температура, при понижении до которой содержащийся в воздухе водяной пар достигнет насыщения.
f - Относительная влажность воздуха - влажноcть воздуха, измеренная на высоте 2 м над землей.
Te - Эффективная температура - температура, которую ощущает одетый по сезону человек в тени. Характеристика душности погоды. При расчете учитывается влияние влажности воздуха и скорости ветра на теплоощущения человека.
Tes - Эффективная температура на солнце - температура, которую ощущает человек, с поправкой на солнечный нагрев. Характеристика знойности погоды. Зависит от высоты солнца над горизонтом, облачности и скорости ветра. Ночью, в пасмурную погоду, а также при ветре 12 м/с и более поправка равна нулю.
P - Атмосферное давление - приведенное к уровню моря атмосферное давление.
Po - Атмосферное давление - измеренное на уровне метеостанции атмосферное давление.
Tmin - Минимальная температура - минимум температуры воздуха на высоте 2 м над землей.
Tmax - Максимальная температура - максимум температуры воздуха на высоте 2 м над землей.
R - Количество осадков - Количество выпавших осадков за период времени, мм. При наведении курсора мыши на число - период времени, за который выпало указанное количество осадков.
R24 - Количество осадков - Количество выпавших осадков за 24 часа, мм.
S - Снежный покров - Высота снежного покрова, см. При наведении курсора мыши на число - состояние снежного покрова и степень покрытия местности в баллах.